TimeCST,TemperatureF,Dew PointF,Humidity,Sea Level PressureIn,VisibilityMPH,Wind Direction,Wind SpeedMPH,Gust SpeedMPH,PrecipitationIn,Events,Conditions,WindDirDegrees,DateUTC
12:53 AM,54.0,52.0,93,30.05,0.2,Calm,Calm,-,N/A,Fog,Fog,0,2013-02-06 06:53:00
1:53 AM,53.1,52.0,96,30.05,0.2,Calm,Calm,-,N/A,Fog,Fog,0,2013-02-06 07:53:00
2:53 AM,53.1,52.0,96,30.06,0.8,Calm,Calm,-,N/A,,Mist,0,2013-02-06 08:53:00
3:05 AM,53.6,51.8,94,30.06,1.0,Calm,Calm,-,N/A,,Overcast,0,2013-02-06 09:05:00
3:26 AM,53.6,51.8,94,30.06,3.0,Calm,Calm,-,N/A,,Overcast,0,2013-02-06 09:26:00
3:53 AM,54.0,53.1,97,30.06,3.0,Calm,Calm,-,N/A,,Overcast,0,2013-02-06 09:53:00
4:09 AM,53.6,53.6,100,30.08,1.8,Calm,Calm,-,N/A,,Overcast,0,2013-02-06 10:09:00
4:33 AM,53.6,53.6,100,30.08,0.8,Calm,Calm,-,N/A,,Overcast,0,2013-02-06 10:33:00
4:53 AM,54.0,53.1,97,30.08,0.5,Calm,Calm,-,N/A,Fog,Fog,0,2013-02-06 10:53:00
5:53 AM,54.0,53.1,97,30.09,0.8,Calm,Calm,-,N/A,,Mist,0,2013-02-06 11:53:00
6:53 AM,54.0,53.1,97,30.12,0.2,Calm,Calm,-,N/A,Fog,Fog,0,2013-02-06 12:53:00
7:53 AM,54.0,53.1,97,30.14,0.2,ENE,3.5,-,N/A,Fog,Fog,70,2013-02-06 13:53:00
8:53 AM,55.0,54.0,96,30.14,0.2,ENE,3.5,-,0.01,Fog,Fog,60,2013-02-06 14:53:00
9:38 AM,55.4,53.6,94,30.15,1.0,Calm,Calm,-,N/A,,Overcast,0,2013-02-06 15:38:00
9:53 AM,57.0,55.0,93,30.14,2.5,NNE,3.5,-,N/A,,Overcast,30,2013-02-06 15:53:00
10:01 AM,57.2,55.4,94,30.15,4.0,NE,3.5,-,N/A,,Overcast,40,2013-02-06 16:01:00
10:43 AM,62.6,55.4,77,30.15,10.0,Calm,Calm,-,N/A,,Mostly Cloudy,0,2013-02-06 16:43:00
10:53 AM,62.1,55.0,78,30.15,10.0,Calm,Calm,-,N/A,,Mostly Cloudy,0,2013-02-06 16:53:00
11:02 AM,60.8,55.4,82,30.15,10.0,Calm,Calm,-,N/A,,Scattered Clouds,0,2013-02-06 17:02:00
11:10 AM,62.6,55.4,77,30.15,10.0,Calm,Calm,-,N/A,,Mostly Cloudy,0,2013-02-06 17:10:00
11:43 AM,66.2,55.4,68,30.14,10.0,ESE,4.6,-,N/A,,Scattered Clouds,110,2013-02-06 17:43:00
11:53 AM,64.9,55.0,70,30.13,10.0,East,3.5,-,N/A,,Partly Cloudy,100,2013-02-06 17:53:00
12:53 PM,70.0,55.0,59,30.09,-9999.0,North,-9999.0,-,N/A,,Unknown,0,2013-02-06 18:53:00
1:53 PM,-9999,-9999,N/A,30.09,-9999.0,North,-9999.0,-,N/A,,Unknown,0,2013-02-06 19:53:00
2:53 PM,-9999,-9999,N/A,30.08,-9999.0,North,-9999.0,-,N/A,,Unknown,0,2013-02-06 20:53:00
3:53 PM,-9999,-9999,N/A,30.06,-9999.0,North,-9999.0,-,N/A,,Unknown,0,2013-02-06 21:53:00
4:53 PM,70.0,53.1,55,30.05,10.0,Calm,Calm,-,N/A,,Clear,0,2013-02-06 22:53:00
5:53 PM,63.0,54.0,72,30.05,10.0,Calm,Calm,-,N/A,,Clear,0,2013-02-06 23:53:00
6:53 PM,57.9,54.0,87,30.08,10.0,Calm,Calm,-,N/A,,Clear,0,2013-02-07 00:53:00
7:53 PM,55.9,53.1,90,30.08,10.0,Calm,Calm,-,N/A,,Clear,0,2013-02-07 01:53:00
8:53 PM,54.0,52.0,93,30.07,7.0,Calm,Calm,-,N/A,,Clear,0,2013-02-07 02:53:00
9:53 PM,54.0,52.0,93,30.06,7.0,Calm,Calm,-,N/A,,Clear,0,2013-02-07 03:53:00
10:53 PM,52.0,50.0,93,30.06,8.0,Calm,Calm,-,N/A,,Clear,0,2013-02-07 04:53:00
11:53 PM,52.0,48.9,89,30.05,8.0,Calm,Calm,-,N/A,,Clear,0,2013-02-07 05:53:00